Weather Roundup
Issued by NWS

Home | Current Version | Previous Version | Text Only | Print | Product List | Glossary On
Versions: 1 2 3 4 5 6 7 8 9 10 11 12 13 14 15 16 17 18 19 20 21 22 23 24 25 26 27 28 29 30 31 32 33 34 35 36 37 38 39 40 41 42 43 44 45 46 47 48 49 50
000
NZUS93 KARX 081859
HRRWXR

CURRENT HOURLY OBSERVATIONS ACROSS
MUCH OF THE UPPER MISSISSIPPI VALLEY
NATIONAL WEATHER SERVICE LA CROSSE WI
100 PM CST THU DEC 08 2016


...SOUTHEAST MINNESOTA...


CITY           SKY/WX    TMP DP  RH WIND       PRES   REMARKS
ROCHESTER      LGT SNOW  21  16  81 NW18      30.33R WCI   6
ROCHESTER/MAYO CLOUDY    21  16  79 W23       30.34R WCI   5
WINONA         CLOUDY    27  18  69 NW13      30.35R WCI  16
AUSTIN         LGT SNOW  19  12  73 NW17G28   30.38R WCI   4
ALBERT LEA     LGT SNOW  21  16  79 NW13G26   30.40R WCI   9
DODGE CENTER   FLURRIES  19  16  86 W12       30.35R WCI   7
PRESTON        LGT SNOW  20  14  78 NW16      30.34R WCI   6
OWATONNA       FLURRIES  19  14  79 W17G24    30.38S WCI   4
FARIBAULT      NOT AVBL
$$

...ELSEWHERE IN MINNESOTA...


CITY           SKY/WX    TMP DP  RH WIND       PRES   REMARKS
MINNEAPOLIS    FLURRIES  24  14  65 NW15      30.38R WCI  11
INTNL FALLS    PTSUNNY   20  11  68 N17       30.32R WCI   5
DULUTH         CLOUDY    22  15  75 NW17G26   30.24R WCI   8
RED WING       FLURRIES  25  14  63 NW13      30.34S WCI  13
REDWOOD FALLS  CLOUDY    18   9  68 NW18G25   30.48S WCI   2
MANKATO        FLURRIES  18  12  77 NW21G26   30.43S WCI   1
WORTHINGTON    PTSUNNY   18  10  71 W23       30.47F WCI   0
FAIRMONT       PTSUNNY   20  11  68 NW25      30.44F WCI   2
$$

...SOUTHWEST WISCONSIN...


CITY           SKY/WX    TMP DP  RH WIND       PRES   REMARKS
LA CROSSE      CLOUDY    26  16  65 NW14      30.33R WCI  14
PRAIRIE DU CHI CLOUDY    24  15  67 W12       30.35S WCI  13
BOSCOBEL       CLOUDY    25  15  66 W7G20     30.34S WCI  17
LONE ROCK      NOT AVBL
PLATTEVILLE    CLOUDY    21  16  79 W14G21    30.32S WCI   8
FORT MC COY    FLURRIES  23  17  77 W12G17    30.30R WCI  12
MAUSTON-NEW LI CLOUDY    24  17  75 NW15      30.25S WCI  11
VIROQUA        CLOUDY    22  16  79 NW15      30.27S WCI   8
WIS DELLS      CLOUDY    22  15  75 W15G22    30.25S WCI   9
$$

...ELSEWHERE IN WISCONSIN...


CITY           SKY/WX    TMP DP  RH WIND       PRES   REMARKS
MILWAUKEE      PTSUNNY   25  13  60 W24G32    30.21R WCI   9
MADISON        FLURRIES  22  14  71 W12G18    30.26R WCI  10
GREEN BAY      FLURRIES  33  21  61 W15G24    30.13R WCI  23
EAU CLAIRE     NOT AVBL
BLACK RVR FLS  CLOUDY    25  16  67 W9        30.29R WCI  15
MEDFORD        CLOUDY    23  15  71 NW13      30.18R WCI  11
WAUSAU         CLOUDY    25  15  66 NW14G22   30.16R WCI  13
WIS RAPIDS     CLOUDY    25  17  72 NW12G18   30.23R WCI  14
MARSHFIELD     CLOUDY    24  16  71 NW15      30.20R WCI  11
RICE LAKE      CLOUDY    24  16  71 W12G17    30.30R WCI  13
$$

...NORTHEAST IOWA...


CITY           SKY/WX    TMP DP  RH WIND       PRES   REMARKS
WATERLOO       FLURRIES  21  13  71 NW14G22   30.42R WCI   8
DUBUQUE        FLURRIES  19  14  81 NW17      30.34S WCI   4
DECORAH        LGT SNOW  21  16  79 NW14G20   30.33S WCI   8
MASON CITY     FLURRIES  20  12  71 NW18      30.43R WCI   5
CHARLES CITY   FLURRIES  21  14  73 NW22      30.39S WCI   5
OELWEIN        FLURRIES  21  16  79 NW18      30.38S WCI   6
$$

...ELSEWHERE IN IOWA...


CITY           SKY/WX    TMP DP  RH WIND       PRES   REMARKS
DES MOINES     PTSUNNY   22   9  57 NW21G29   30.50F WCI   6
IOWA CITY      FLURRIES  21  11  65 W17G26    30.47R WCI   7
FORT DODGE     CLOUDY    21  10  63 NW12G22   30.49S WCI   9
MARSHALLTOWN   FLURRIES  20  11  68 NW23G31   30.45F WCI   3
CEDAR RAPIDS   CLOUDY    19  14  81 W24       30.42R WCI   2
$$

...NORTHERN ILLINOIS...


CITY           SKY/WX    TMP DP  RH WIND       PRES   REMARKS
CHICAGO-OHARE  CLOUDY    20  12  71 W18G26    30.28R WCI   5
CHICAGO-MIDWAY FLURRIES  20  10  65 W20G28    30.30R WCI   4
MOLINE         FLURRIES  21  11  65 W21G28    30.41F WCI   5
ROCKFORD       FLURRIES  21  13  71 W18G26    30.33S WCI   6
PEORIA         CLOUDY    20  10  65 W15G24    30.43S WCI   6
$$

NOTE: "FAIR" INDICATES FEW OR NO CLOUDS BELOW 12,000 FEET WITH NO
SIGNIFICANT WEATHER AND/OR OBSTRUCTIONS TO VISIBILITY. WIND
SPEEDS ARE IN MILES-PER-HOUR.




USA.gov is the U.S. government's official web portal to all federal, state and local government web resources and services.